This demonstration page uses our WeatherBlox Daily Observations layout. Learn more.

Left ArrowRight Arrow

34.16533, -84.80231

Hourly Observations for May 21, 2017

Temp ( °F °C ) Dew Point ( °F °C ) Humidity (%) Winds ( mph kmh ) Pressure ( in mb ) Visibility ( mi km ) Precip ( " mm )
12:01 am 00:01 Cloudy with Nearby Thunderstorms 68 20 68 20 100 100 VRB 3 6 30.12 1020 1 1 0.17 4.32
12:10 am 00:10 Cloudy with Nearby Thunderstorms 67 19.4 67 19.4 100 100 S 5 7 30.12 1020 1 2 0.30 7.62
12:17 am 00:17 Cloudy with Nearby Thunderstorms 67 19.4 67 19.4 100 100 S 5 7 30.15 1021 3 5 0.34 8.64
12:28 am 00:28 Cloudy with Nearby Thunderstorms 67 19.4 67 19.4 100 100 ESE 3 6 30.12 1020 3 4 0.40 10.16
12:32 am 00:32 Cloudy with Rain 67 19.4 67 19.4 100 100 E 3 6 30.12 1020 3 5 0.42 10.67
12:53 am 00:53 Cloudy with Rain 67 19.4 67 19.4 100 100 ESE 3 6 30.11 1020 5 8 0.51 12.95
1:53 am 01:53 Mostly Cloudy with Light Rain 67 19.4 67 19.4 100 100 Calm 30.07 1018 10 16 0.19 4.83
2:53 am 02:53 Cloudy with Light Rain 67 19.4 67 19.4 100 100 Calm 30.03 1017 10 16 0.05 1.27
3:53 am 03:53 Mostly Cloudy with Light Rain 67 19.4 65 18.3 93 93 S 6 9 30.00 1016 10 16 0.07 1.78
4:53 am 04:53 Cloudy with Rain 65 18.3 65 18.3 100 100 Calm 30.02 1017 4 6 0.09 2.29
5:12 am 05:12 Cloudy with Heavy Rain 65 18.3 65 18.3 100 100 VRB 3 6 30.06 1018 2 3 0.17 4.32
5:23 am 05:23 Cloudy with Rain 65 18.3 65 18.3 100 100 Calm 30.03 1017 3 5 0.21 5.33
5:53 am 05:53 Cloudy with Light Rain 65 18.3 65 18.3 100 100 E 5 7 30.03 1017 8 13 0.25 6.35
6:53 am 06:53 Cloudy with Light Rain 66 18.9 66 18.9 100 100 E 6 9 30.04 1017 10 16 0.02 0.51
7:53 am 07:53 Cloudy 67 19.4 67 19.4 100 100 SSE 5 7 30.06 1018 10 16 0.01 0.25
8:53 am 08:53 Cloudy 68 20 68 20 100 100 NNW 3 6 30.09 1019 10 16 0.00 0.00
9:07 am 09:07 Cloudy 68 20 68 20 100 100 Calm 30.09 1019 10 16 0.00 0.00
9:14 am 09:14 Cloudy 68 20 68 20 100 100 VRB 3 6 30.09 1019 10 16 0.00 0.00
9:53 am 09:53 Cloudy 68 20 68 20 100 100 Calm 30.09 1019 10 16 0.00 0.00
10:39 am 10:39 Cloudy 70 21.1 69 20.6 97 97 NNW 5 7 30.09 1019 10 16 0.00 0.00
10:53 am 10:53 Cloudy 70 21.1 69 20.6 97 97 Calm 30.10 1019 10 16 0.00 0.00
11:13 am 11:13 Cloudy 71 21.7 69 20.6 94 94 Calm 30.09 1019 10 16 0.00 0.00
11:53 am 11:53 Cloudy 73 22.8 69 20.6 87 87 Calm 30.11 1020 10 16 0.00 0.00
12:25 pm 12:25 Cloudy 72 22.2 69 20.6 91 91 SW 3 6 30.12 1020 10 16 0.00 0.00
12:53 pm 12:53 Mostly Cloudy 75 23.9 69 20.6 82 82 Calm 30.09 1019 10 16 0.00 0.00
1:53 pm 13:53 Mostly Sunny 77 25 69 20.6 77 77 Calm 30.06 1018 10 16 0.00 0.00
2:53 pm 14:53 Mostly Cloudy 79 26.1 68 20 69 69 Calm 30.05 1018 10 16 0.00 0.00
3:53 pm 15:53 Mostly Cloudy 78 25.6 69 20.6 74 74 Calm 30.05 1018 10 16 0.00 0.00
4:53 pm 16:53 Cloudy 80 26.7 69 20.6 69 69 NNW 5 7 30.03 1017 10 16 0.00 0.00
5:53 pm 17:53 Mostly Cloudy 80 26.7 68 20 67 67 Calm 30.01 1016 10 16 0.00 0.00
6:53 pm 18:53 Mostly Sunny 77 25 70 21.1 79 79 Calm 30.02 1017 10 16 0.00 0.00
7:53 pm 19:53 Cloudy 75 23.9 73 22.8 94 94 Calm 30.04 1017 10 16 0.00 0.00
8:53 pm 20:53 Mostly Clear 73 22.8 71 21.7 94 94 Calm 30.04 1017 10 16 0.00 0.00
9:53 pm 21:53 Clear 70 21.1 70 21.1 100 100 Calm 30.06 1018 10 16 0.00 0.00
10:53 pm 22:53 Clear 69 20.6 69 20.6 100 100 Calm 30.06 1018 10 16 0.00 0.00
11:53 pm 23:53 Clear 68 20 68 20 100 100 Calm 30.06 1018 8 13 0.00 0.00

Powered by AerisWeather